Weather History for Shannon, Ireland

Change the Weather History Date:

Thursday, June 27, 2013

  Actual Average Record
Temperature  
Mean Temperature 56 °F -  
Max Temperature 64 °F 67 °F 73 °F (2005)
Min Temperature 49 °F 54 °F 48 °F (2005)
Degree Days  
Heating Degree Days 8    
Growing Degree Days 6 (Base 50)    
Moisture  
Dew Point 55 °F    
Average Humidity 93    
Maximum Humidity 100    
Minimum Humidity 82    
Precipitation  
Precipitation 0.00 in 0.08 in - ()
Sea Level Pressure  
Sea Level Pressure 30.45 in    
Wind  
Wind Speed 7 mph ()    
Max Wind Speed 15 mph    
Max Gust Speed -    
Visibility 5.3 miles    
Events      
Averages and records for this station are not official NWS values.
T = Trace of Precipitation, MM = Missing Value Source: Averaged Metar Reports

Daily Weather History Graph

Daily Weather History Graph

Search for Another Location

Airport:

Trip Planner

Search our weather history database for the weather conditions in past years. The results will help you decide how hot, cold, wet, or windy it might be!

Date:

Astronomy

Jun. 27, 2013 Rise Set
Actual Time 5:13 AM IST 10:03 PM IST
Civil Twilight 4:23 AM IST 10:54 PM IST
Nautical Twilight 2:58 AM IST 12:17 AM IST
Astronomical Twilight Sun does not rise Sun does not rise
Moon No Moon Rise 10:40 AM IST (6/27)
Length of Visible Light 18h 31m
Length of Day
16h 50m
Waning Gibbous, 78% of the Moon is Illuminated
Jun 27
Waning Gibbous
Jun 30
Last Quarter
Jul 8
New
Jul 16
First Quarter
Jul 22
Full

Hourly Weather History & Observations

Time (IST) Temp. Dew Point Humidity Pressure Visibility Wind Dir Wind Speed Gust Speed Precip Events Conditions
12:00 AM 51.8 °F 48.2 °F 88% 30.54 in 6.2 mi West 4.6 mph - N/A   Scattered Clouds
12:30 AM 51.8 °F 48.2 °F 88% 30.54 in 6.2 mi West 4.6 mph - N/A   Scattered Clouds
1:00 AM 51 °F 49 °F 89% 30.55 in 12 mi West 4.5 mph - -   Scattered Clouds
1:00 AM 51.8 °F 48.2 °F 88% 30.54 in 6.2 mi West 4.6 mph - N/A   Scattered Clouds
1:30 AM 51.8 °F 48.2 °F 88% 30.54 in 6.2 mi West 4.6 mph - N/A   Scattered Clouds
2:00 AM 51.8 °F 48.2 °F 88% 30.54 in 6.2 mi WSW 4.6 mph - N/A   Scattered Clouds
2:30 AM 50.0 °F 48.2 °F 94% 30.54 in 6.2 mi WNW 1.2 mph - N/A   Scattered Clouds
3:00 AM 50.0 °F 48.2 °F 94% 30.51 in 6.2 mi WSW 1.2 mph - N/A   Scattered Clouds
3:30 AM 51.8 °F 50.0 °F 94% 30.51 in 6.2 mi SW 3.5 mph - N/A   Scattered Clouds
4:00 AM 51.8 °F 50.0 °F 94% 30.51 in 6.2 mi Calm Calm - N/A   Scattered Clouds
4:30 AM 51.8 °F 50.0 °F 94% 30.51 in 5.0 mi South 1.2 mph - N/A   Mostly Cloudy
5:00 AM 51.8 °F 50.0 °F 94% 30.51 in 5.0 mi WSW 3.5 mph - N/A   Mostly Cloudy
5:30 AM 51.8 °F 51.8 °F 100% 30.48 in 5.0 mi SW 3.5 mph - N/A   Mostly Cloudy
6:00 AM 53.6 °F 51.8 °F 94% 30.48 in 5.0 mi South 4.6 mph - N/A   Mostly Cloudy
6:30 AM 53.6 °F 53.6 °F 100% 30.48 in 5.0 mi WSW 6.9 mph - N/A   Mostly Cloudy
7:00 AM 55 °F 53 °F 91% 30.49 in 5 mi SW 6.7 mph - -   Mist
7:00 AM 55.4 °F 53.6 °F 94% 30.48 in 5.0 mi SW 6.9 mph - N/A   Mostly Cloudy
7:30 AM 55.4 °F 53.6 °F 94% 30.48 in 6.2 mi SW 10.4 mph - N/A   Mostly Cloudy
8:00 AM 55.4 °F 53.6 °F 94% 30.48 in 5.6 mi WSW 9.2 mph - N/A   Overcast
8:30 AM 55.4 °F 55.4 °F 100% 30.48 in 4.3 mi West 10.4 mph - N/A   Overcast
9:00 AM 55.4 °F 55.4 °F 100% 30.48 in 1.6 mi SW 13.8 mph - N/A   Overcast
9:30 AM 55.4 °F 55.4 °F 100% 30.45 in 1.6 mi SW 12.7 mph - N/A   Light Drizzle
10:00 AM 57.2 °F 57.2 °F 100% 30.45 in 1.6 mi WSW 11.5 mph - N/A   Light Drizzle
10:30 AM 57.2 °F 57.2 °F 100% 30.45 in 1.9 mi WSW 13.8 mph - N/A   Overcast
11:00 AM 59.0 °F 57.2 °F 94% 30.45 in 1.9 mi WSW 13.8 mph - N/A   Light Drizzle
11:30 AM 59.0 °F 59.0 °F 100% 30.45 in 3.1 mi WSW 12.7 mph - N/A   Light Drizzle
12:00 PM 60.8 °F 59.0 °F 94% 30.45 in 5.0 mi WSW 12.7 mph - N/A   Mostly Cloudy
12:30 PM 59.0 °F 59.0 °F 100% 30.45 in 6.2 mi SW 11.5 mph - N/A   Overcast
1:00 PM 60 °F 58 °F 93% 30.45 in 7 mi WSW 8.9 mph - -   Partly Cloudy
1:00 PM 60.8 °F 59.0 °F 94% 30.45 in 6.2 mi WSW 9.2 mph - N/A   Overcast
1:30 PM 60.8 °F 57.2 °F 88% 30.45 in 6.2 mi WSW 9.2 mph - N/A   Overcast
2:00 PM 60.8 °F 57.2 °F 88% 30.45 in 6.2 mi West 9.2 mph - N/A   Mostly Cloudy
2:30 PM 64.4 °F 59.0 °F 83% 30.42 in 6.2 mi West 12.7 mph - N/A   Mostly Cloudy
3:00 PM 62.6 °F 59.0 °F 88% 30.42 in 6.2 mi West 15.0 mph - N/A   Mostly Cloudy
3:30 PM 62.6 °F 59.0 °F 88% 30.42 in 6.2 mi West 13.8 mph - N/A   Mostly Cloudy
4:00 PM 60.8 °F 59.0 °F 94% 30.42 in 6.2 mi WSW 12.7 mph - N/A   Mostly Cloudy
4:30 PM 62.6 °F 59.0 °F 88% 30.39 in 6.2 mi WSW 13.8 mph - N/A   Mostly Cloudy
5:00 PM 62.6 °F 59.0 °F 88% 30.39 in 6.2 mi West 13.8 mph - N/A   Mostly Cloudy
5:30 PM 62.6 °F 57.2 °F 82% 30.39 in 6.2 mi West 12.7 mph - N/A   Mostly Cloudy
6:00 PM 62.6 °F 57.2 °F 82% 30.39 in 6.2 mi West 13.8 mph - N/A   Mostly Cloudy
6:30 PM 60.8 °F 57.2 °F 88% 30.36 in 6.2 mi West 13.8 mph - N/A   Mostly Cloudy
7:00 PM 60 °F 56 °F 84% 30.38 in 6 mi WSW 13.4 mph - -   Mostly Cloudy
7:00 PM 60.8 °F 57.2 °F 88% 30.36 in 6.2 mi WSW 13.8 mph - N/A   Mostly Cloudy
7:30 PM 59.0 °F 57.2 °F 94% 30.36 in 6.2 mi WSW 15.0 mph - N/A   Mostly Cloudy
8:00 PM 59.0 °F 55.4 °F 88% 30.36 in 6.2 mi West 15.0 mph - N/A   Mostly Cloudy
8:30 PM 57.2 °F 55.4 °F 94% 30.36 in 6.2 mi West 13.8 mph - N/A   Mostly Cloudy
9:00 PM 57.2 °F 55.4 °F 94% 30.36 in 6.2 mi WSW 13.8 mph - N/A   Mostly Cloudy
9:30 PM 57.2 °F 55.4 °F 94% 30.36 in 5.0 mi West 12.7 mph - N/A   Light Drizzle
10:00 PM 57.2 °F 55.4 °F 94% 30.36 in 2.8 mi West 12.7 mph - N/A   Light Drizzle
10:30 PM 57.2 °F 55.4 °F 94% 30.36 in 1.9 mi West 11.5 mph - N/A   Light Drizzle
11:00 PM 55.4 °F 55.4 °F 100% 30.36 in 1.6 mi West 11.5 mph - N/A   Overcast
11:30 PM 55.4 °F 55.4 °F 100% 30.36 in 1.6 mi West 12.7 mph - N/A   Light Drizzle